When you browse on this site, cookies collect data to enhance your experience and personalize the content and advertising you see.
Visit our Privacy Policy to learn more. By continuing to use the site, you agree to this use of cookies and data.

Hourly Weather Malkovo

Today, 5 July, Sunday

Time Temperature Precipitation Wind Pressure Humidity
00:00 +15°C° 0 mm 1 mps 744 mmHg 85%
01:00 +15°C° 0 mm 1 mps 744 mmHg 87%
02:00 +14°C° 0 mm 1 mps 744 mmHg 88%
03:00 +15°C° 0 mm 1 mps 744 mmHg 87%
04:00 +15°C° 0 mm 1 mps 744 mmHg 86%
05:00 +16°C° 0 mm 1 mps 744 mmHg 85%
06:00 +18°C° 0 mm 1 mps 744 mmHg 78%
07:00 +20°C° 0 mm 1 mps 743 mmHg 71%
08:00 +21°C° 0 mm 2 mps 743 mmHg 64%
09:00 +23°C° 0 mm 2 mps 743 mmHg 61%
10:00 +24°C° 0 mm 3 mps 743 mmHg 58%
11:00 +26°C° 0 mm 3 mps 743 mmHg 55%
12:00 +26°C° 0 mm 4 mps 743 mmHg 54%
13:00 +26°C° 0 mm 4 mps 743 mmHg 54%
14:00 +26°C° 0 mm 4 mps 742 mmHg 53%
15:00 +26°C° 0.1 mm 4 mps 742 mmHg 59%
16:00 +25°C° 0.1 mm 3 mps 742 mmHg 65%
17:00 +25°C° 0.1 mm 3 mps 742 mmHg 70%
18:00 +23°C° 0.1 mm 2 mps 742 mmHg 77%
19:00 +21°C° 0.1 mm 2 mps 742 mmHg 84%
20:00 +20°C° 0.1 mm 2 mps 742 mmHg 91%
21:00 +19°C° 0 mm 2 mps 741 mmHg 93%
22:00 +18°C° 0 mm 2 mps 741 mmHg 95%
23:00 +18°C° 0 mm 2 mps 741 mmHg 97%

Tomorrow, 6 July, Monday

Time Temperature Precipitation Wind Pressure Humidity
00:00 +17°C° 0 mm 2 mps 741 mmHg 97%
01:00 +17°C° 0 mm 2 mps 741 mmHg 97%
02:00 +17°C° 0 mm 3 mps 741 mmHg 97%
03:00 +18°C° 0 mm 3 mps 741 mmHg 96%
04:00 +18°C° 0 mm 3 mps 741 mmHg 96%
05:00 +18°C° 0 mm 3 mps 741 mmHg 95%
06:00 +20°C° 0 mm 3 mps 741 mmHg 89%
07:00 +21°C° 0 mm 3 mps 741 mmHg 84%
08:00 +24°C° 0 mm 3 mps 741 mmHg 78%
09:00 +23°C° 0.1 mm 4 mps 741 mmHg 77%
10:00 +25°C° 0.1 mm 4 mps 741 mmHg 76%
11:00 +25°C° 0.1 mm 4 mps 741 mmHg 76%
12:00 +25°C° 0.2 mm 3 mps 741 mmHg 75%
13:00 +25°C° 0.2 mm 3 mps 741 mmHg 74%
14:00 +26°C° 0.2 mm 3 mps 740 mmHg 73%
15:00 +26°C° 0.1 mm 3 mps 740 mmHg 73%
16:00 +26°C° 0.1 mm 3 mps 740 mmHg 73%
17:00 +26°C° 0.1 mm 2 mps 740 mmHg 72%
18:00 +25°C° 0.2 mm 2 mps 740 mmHg 79%
19:00 +23°C° 0.2 mm 1 mps 740 mmHg 85%
20:00 +22°C° 0.2 mm 1 mps 740 mmHg 92%
21:00 +22°C° 0 mm 1 mps 740 mmHg 92%
22:00 +19°C° 0 mm 0 mps 740 mmHg 93%
23:00 +19°C° 0 mm 0 mps 740 mmHg 94%

Day after tomorrow, 7 July, Tuesday

Time Temperature Precipitation Wind Pressure Humidity
00:00 +20°C° 0.3 mm 1 mps 740 mmHg 95%
01:00 +20°C° 0.3 mm 1 mps 740 mmHg 96%
02:00 +20°C° 0.3 mm 1 mps 740 mmHg 97%
03:00 +20°C° 0.1 mm 1 mps 740 mmHg 98%
04:00 +20°C° 0.1 mm 1 mps 740 mmHg 98%
05:00 +18°C° 0.1 mm 0 mps 740 mmHg 98%
06:00 +20°C° 0.7 mm 1 mps 740 mmHg 97%
07:00 +18°C° 0.7 mm 2 mps 740 mmHg 97%
08:00 +18°C° 0.7 mm 3 mps 740 mmHg 97%
09:00 +18°C° 1.6 mm 3 mps 740 mmHg 97%
10:00 +17°C° 1.6 mm 3 mps 741 mmHg 97%
11:00 +16°C° 1.6 mm 3 mps 741 mmHg 97%
12:00 +17°C° 0 mm 3 mps 741 mmHg 91%
13:00 +18°C° 0 mm 3 mps 741 mmHg 85%
14:00 +19°C° 0 mm 3 mps 741 mmHg 80%
15:00 +19°C° 0 mm 3 mps 742 mmHg 77%
16:00 +19°C° 0 mm 2 mps 742 mmHg 75%
17:00 +19°C° 0 mm 2 mps 742 mmHg 73%
18:00 +17°C° 0 mm 2 mps 742 mmHg 76%
19:00 +16°C° 0 mm 1 mps 742 mmHg 79%
20:00 +15°C° 0 mm 1 mps 742 mmHg 83%
21:00 +15°C° 0 mm 1 mps 743 mmHg 83%
22:00 +14°C° 0 mm 1 mps 743 mmHg 84%
23:00 +13°C° 0 mm 1 mps 743 mmHg 84%

8 July, Wednesday

Time Temperature Precipitation Wind Pressure Humidity
00:00 +13°C° 0 mm 1 mps 743 mmHg 87%
01:00 +13°C° 0 mm 1 mps 743 mmHg 89%
02:00 +12°C° 0 mm 1 mps 743 mmHg 92%
03:00 +13°C° 0 mm 1 mps 744 mmHg 91%
04:00 +13°C° 0 mm 1 mps 744 mmHg 90%
05:00 +13°C° 0 mm 1 mps 744 mmHg 88%
06:00 +15°C° 0 mm 1 mps 744 mmHg 82%
07:00 +18°C° 0 mm 1 mps 744 mmHg 75%
08:00 +18°C° 0 mm 2 mps 744 mmHg 68%
09:00 +20°C° 0 mm 2 mps 744 mmHg 63%
10:00 +22°C° 0 mm 1 mps 744 mmHg 57%
11:00 +24°C° 0 mm 1 mps 744 mmHg 51%
12:00 +25°C° 0 mm 1 mps 744 mmHg 49%
13:00 +25°C° 0 mm 1 mps 744 mmHg 47%
14:00 +26°C° 0 mm 1 mps 744 mmHg 45%
15:00 +26°C° 0 mm 1 mps 743 mmHg 47%
16:00 +25°C° 0 mm 1 mps 743 mmHg 50%
17:00 +24°C° 0 mm 2 mps 743 mmHg 53%
18:00 +21°C° 0 mm 2 mps 743 mmHg 61%
19:00 +20°C° 0 mm 2 mps 742 mmHg 70%
20:00 +18°C° 0 mm 2 mps 742 mmHg 79%
21:00 +16°C° 0 mm 2 mps 742 mmHg 80%
22:00 +15°C° 0 mm 2 mps 742 mmHg 82%
23:00 +14°C° 0 mm 2 mps 742 mmHg 84%

9 July, Thursday

Time Temperature Precipitation Wind Pressure Humidity
00:00 +14°C° 0 mm 2 mps 742 mmHg 83%
01:00 +14°C° 0 mm 2 mps 741 mmHg 82%
02:00 +13°C° 0 mm 2 mps 741 mmHg 81%
03:00 +13°C° 0 mm 2 mps 741 mmHg 83%
04:00 +13°C° 0 mm 2 mps 741 mmHg 85%
05:00 +13°C° 0 mm 2 mps 741 mmHg 87%
06:00 +15°C° 0 mm 2 mps 741 mmHg 81%
07:00 +17°C° 0 mm 3 mps 741 mmHg 75%
08:00 +18°C° 0 mm 3 mps 741 mmHg 69%
09:00 +19°C° 0 mm 3 mps 741 mmHg 63%
10:00 +21°C° 0 mm 3 mps 741 mmHg 57%
11:00 +22°C° 0 mm 3 mps 741 mmHg 51%
12:00 +22°C° 0.1 mm 4 mps 741 mmHg 52%
13:00 +22°C° 0.1 mm 4 mps 741 mmHg 53%
14:00 +22°C° 0.1 mm 4 mps 740 mmHg 54%
15:00 +21°C° 0.4 mm 4 mps 740 mmHg 60%
16:00 +20°C° 0.4 mm 4 mps 740 mmHg 67%
17:00 +19°C° 0.4 mm 4 mps 740 mmHg 73%
18:00 +18°C° 0 mm 3 mps 741 mmHg 74%
19:00 +17°C° 0 mm 3 mps 741 mmHg 76%
20:00 +16°C° 0 mm 3 mps 741 mmHg 77%
21:00 +14°C° 0 mm 3 mps 741 mmHg 79%
22:00 +13°C° 0 mm 3 mps 741 mmHg 82%
23:00 +12°C° 0 mm 3 mps 741 mmHg 84%

10 July, Friday

Time Temperature Precipitation Wind Pressure Humidity
00:00 +12°C° 0 mm 3 mps 741 mmHg 87%
01:00 +11°C° 0 mm 3 mps 742 mmHg 90%
02:00 +11°C° 0 mm 3 mps 742 mmHg 94%
03:00 +12°C° 0 mm 3 mps 742 mmHg 89%
04:00 +12°C° 0 mm 4 mps 742 mmHg 84%
05:00 +13°C° 0 mm 4 mps 742 mmHg 80%
06:00 +13°C° 0 mm 4 mps 743 mmHg 78%
07:00 +14°C° 0 mm 4 mps 743 mmHg 76%
08:00 +14°C° 0 mm 4 mps 743 mmHg 75%
09:00 +15°C° 0 mm 4 mps 744 mmHg 71%
10:00 +17°C° 0 mm 4 mps 744 mmHg 67%
11:00 +18°C° 0 mm 4 mps 744 mmHg 63%
12:00 +19°C° 0 mm 3 mps 744 mmHg 58%
13:00 +20°C° 0 mm 3 mps 744 mmHg 54%
14:00 +22°C° 0 mm 3 mps 744 mmHg 49%
15:00 +22°C° 0 mm 3 mps 745 mmHg 49%
16:00 +21°C° 0 mm 3 mps 745 mmHg 48%
17:00 +21°C° 0 mm 3 mps 745 mmHg 48%
18:00 +19°C° 0 mm 2 mps 745 mmHg 57%
19:00 +18°C° 0 mm 2 mps 745 mmHg 67%
20:00 +16°C° 0 mm 2 mps 745 mmHg 76%
21:00 +15°C° 0 mm 2 mps 745 mmHg 79%
22:00 +14°C° 0 mm 2 mps 746 mmHg 82%
23:00 +13°C° 0 mm 2 mps 746 mmHg 85%
Show more